METEOR 1-12

Satellite information

Favourite Embed

Satellite Type and Status

PAYLOADIN ORBIT

Key statistics

Satellite METEOR 1-12 at a glance.

Uptime

19365

Days in orbit

Revolutions

≈ 14.0

Per day

Orbit

LEO

Low Earth Orbit

Inclination

81.2

Latest

Satellite identification and parameters

Extended collection of information and parameters for METEOR 1-12.

Object identification

Identified? True

Debris? False

Object name: METEOR 1-12

International designator: 1972-049A

Object number (NORAD): 6079

Object ID (CCSDS): 6079

Country: COMMONWEALTH OF INDEPENDENT STATES (CIS)

Current information (Y/N): Y

RCS size: LARGE

Orbital parameters

Period: 102.6 minutes

Inclination: 81.2288 deg

SMA: 7259.803 km

Apoapsis: 889.373 km

Periapsis: 873.964 km

RAAN: 320.8354 deg

Eccentricy: 0.0010613

Argument of periapsis: 7.0014 deg

Mean anomaly: 353.13 deg

Mean motion: 14.03509884 rev/day

Mean motion (dot): 0.00000027 rev/day2

B* drag term: 0.0000096894 1/REarth

Two-line elements (TLE)

Creation date: July 6, 2025, 6:05 p.m.

Reference frame: TEME

Reference center: EARTH

Epoch: July 6, 2025, 11:55 a.m. UTC

TLE line 0: 0 METEOR 1-12

TLE line 1: 1 06079U 72049A 25187.49721006 .00000027 00000-0 96894-5 0 9996

TLE line 2: 2 06079 81.2288 320.8354 0010613 7.0014 353.1300 14.03509884712615

Live tracking on map

Real-time ground track for satellite METEOR 1-12.

In-orbit conjunctions

A list of the most updated potential collisions computed for object METEOR 1-12.

Target Orbit TCA Probability of collision Miss distance Type
SCOUT B DEB HEO 2025-03-04 14:50:47 0.0001397304 306.0 (m) DEBRIS
THORAD AGENA D DEB SSO 2025-02-17 16:16:41 0.0001713096 402.0 (m) DEBRIS
COSMOS 1275 DEB LEO 2025-02-06 15:00:10 0.0001120763 578.0 (m) DEBRIS
THORAD AGENA D DEB SSO 2024-09-22 22:58:11 0.0001158966 409.0 (m) DEBRIS
DELTA 1 DEB SSO 2024-08-05 16:35:33 0.0001574374 504.0 (m) DEBRIS

Associated space launch

The Meteor-1 series was the first series of Soviet meteorological satellites.

METEOR 1-12 was lifted into orbit during the mission ‘Vostok 8A92M | Meteor-1 12 (26L)’, on board a Vostok 8A92M space rocket.

The launch took place on June 30, 1972, 6:52 p.m. from 41/1.

For more information about the launch, click the button.

Launch to space Vostok 8A92M | Meteor-1 12 (26L)
Vostok 8A92M | Meteor-1 12 (26L)

Agency: N/A

Status: Launch Successful

Launch date: June 30, 1972, 6:52 p.m. UTC

Rocket: Vostok 8A92M

Launch pad: 41/1

Location: Plesetsk Cosmodrome, Russian Federation

...

Latest news about this satellite

There are no fresh news available about this satellite. Check back as we update our databases every day.


Newsletter sign-up

Weekly statistics, charts and insights to help you stay on top of the space industry.